When you browse on this site, cookies collect data to enhance your experience and personalize the content and advertising you see.
Visit our Privacy Policy to learn more. By continuing to use the site, you agree to this use of cookies and data.
  • En España
  • Lista de países
  • Para 7 días
  • Temperatura del agua
  • Mapa Satelital
  • El tiempo en el mapa
  • Informadores
  • user-avatar
    Iniciar sesión

    Tiempo cada hora Vyazgino

    Hoy, 22 Mayo, Miércoles

    Tiempo Temperatura Precipitaciones Viento Presión Humedad
    00:00 +14°C° 0 mm 2 mps 743 mmHg 92%
    01:00 +14°C° 0 mm 2 mps 743 mmHg 94%
    02:00 +13°C° 0 mm 1 mps 742 mmHg 94%
    03:00 +14°C° 0 mm 1 mps 742 mmHg 93%
    04:00 +14°C° 0 mm 2 mps 742 mmHg 92%
    05:00 +14°C° 0 mm 2 mps 742 mmHg 91%
    06:00 +16°C° 0 mm 2 mps 742 mmHg 85%
    07:00 +18°C° 0 mm 2 mps 742 mmHg 78%
    08:00 +20°C° 0 mm 2 mps 742 mmHg 69%
    09:00 +21°C° 0 mm 2 mps 741 mmHg 66%
    10:00 +23°C° 0 mm 2 mps 741 mmHg 62%
    11:00 +24°C° 0 mm 2 mps 741 mmHg 59%
    12:00 +24°C° 1 mm 2 mps 741 mmHg 61%
    13:00 +24°C° 1 mm 2 mps 740 mmHg 63%
    14:00 +24°C° 1 mm 2 mps 740 mmHg 65%
    15:00 +24°C° 1.1 mm 2 mps 740 mmHg 68%
    16:00 +24°C° 1.1 mm 1 mps 740 mmHg 71%
    17:00 +23°C° 1.1 mm 1 mps 739 mmHg 74%
    18:00 +22°C° 1 mm 1 mps 739 mmHg 78%
    19:00 +20°C° 1 mm 1 mps 739 mmHg 82%
    20:00 +18°C° 1 mm 1 mps 739 mmHg 86%
    21:00 +18°C° 0 mm 1 mps 739 mmHg 87%
    22:00 +18°C° 0 mm 1 mps 739 mmHg 88%
    23:00 +16°C° 0 mm 1 mps 738 mmHg 89%

    Mañana, 23 Mayo, Jueves

    Tiempo Temperatura Precipitaciones Viento Presión Humedad
    00:00 +16°C° 0 mm 1 mps 738 mmHg 90%
    01:00 +15°C° 0 mm 1 mps 738 mmHg 91%
    02:00 +15°C° 0 mm 1 mps 738 mmHg 92%
    03:00 +15°C° 0 mm 1 mps 738 mmHg 92%
    04:00 +15°C° 0 mm 1 mps 738 mmHg 92%
    05:00 +15°C° 0 mm 1 mps 738 mmHg 92%
    06:00 +17°C° 0 mm 2 mps 738 mmHg 87%
    07:00 +18°C° 0 mm 2 mps 738 mmHg 82%
    08:00 +20°C° 0 mm 2 mps 738 mmHg 78%
    09:00 +21°C° 0 mm 2 mps 738 mmHg 71%
    10:00 +24°C° 0 mm 3 mps 738 mmHg 65%
    11:00 +25°C° 0 mm 3 mps 738 mmHg 58%
    12:00 +25°C° 0.3 mm 3 mps 738 mmHg 59%
    13:00 +25°C° 0.3 mm 4 mps 738 mmHg 61%
    14:00 +25°C° 0.3 mm 4 mps 738 mmHg 62%
    15:00 +25°C° 0.5 mm 3 mps 738 mmHg 66%
    16:00 +24°C° 0.5 mm 3 mps 737 mmHg 70%
    17:00 +24°C° 0.5 mm 2 mps 737 mmHg 73%
    18:00 +21°C° 0.1 mm 2 mps 737 mmHg 78%
    19:00 +20°C° 0.1 mm 2 mps 738 mmHg 83%
    20:00 +18°C° 0.1 mm 2 mps 738 mmHg 87%
    21:00 +18°C° 0 mm 1 mps 738 mmHg 89%
    22:00 +18°C° 0 mm 1 mps 738 mmHg 91%
    23:00 +16°C° 0 mm 1 mps 739 mmHg 93%

    Pasado mañana, 24 Mayo, Viernes

    Tiempo Temperatura Precipitaciones Viento Presión Humedad
    00:00 +15°C° 0 mm 1 mps 739 mmHg 95%
    01:00 +15°C° 0 mm 1 mps 739 mmHg 96%
    02:00 +14°C° 0 mm 2 mps 739 mmHg 97%
    03:00 +15°C° 0 mm 2 mps 739 mmHg 97%
    04:00 +15°C° 0 mm 2 mps 739 mmHg 97%
    05:00 +14°C° 0 mm 3 mps 739 mmHg 96%
    06:00 +14°C° 0 mm 3 mps 740 mmHg 94%
    07:00 +16°C° 0 mm 3 mps 740 mmHg 92%
    08:00 +16°C° 0 mm 3 mps 740 mmHg 90%
    09:00 +17°C° 0 mm 3 mps 740 mmHg 88%
    10:00 +17°C° 0 mm 2 mps 740 mmHg 85%
    11:00 +18°C° 0 mm 2 mps 740 mmHg 82%
    12:00 +18°C° 0 mm 2 mps 740 mmHg 80%
    13:00 +19°C° 0 mm 2 mps 740 mmHg 78%
    14:00 +19°C° 0 mm 2 mps 740 mmHg 77%
    15:00 +19°C° 0 mm 3 mps 740 mmHg 77%
    16:00 +20°C° 0 mm 3 mps 739 mmHg 77%
    17:00 +20°C° 0 mm 3 mps 739 mmHg 78%
    18:00 +19°C° 0.2 mm 3 mps 739 mmHg 83%
    19:00 +17°C° 0.2 mm 2 mps 739 mmHg 88%
    20:00 +16°C° 0.2 mm 2 mps 739 mmHg 93%
    21:00 +16°C° 0.3 mm 2 mps 739 mmHg 94%
    22:00 +16°C° 0.3 mm 2 mps 739 mmHg 95%
    23:00 +14°C° 0.3 mm 3 mps 739 mmHg 96%

    25 Mayo, Sábado

    Tiempo Temperatura Precipitaciones Viento Presión Humedad
    00:00 +14°C° 0.7 mm 3 mps 739 mmHg 97%
    01:00 +15°C° 0.7 mm 2 mps 738 mmHg 97%
    02:00 +15°C° 0.7 mm 2 mps 738 mmHg 98%
    03:00 +15°C° 0.1 mm 2 mps 738 mmHg 97%
    04:00 +15°C° 0.1 mm 2 mps 738 mmHg 97%
    05:00 +15°C° 0.1 mm 2 mps 738 mmHg 97%
    06:00 +15°C° 0.1 mm 2 mps 737 mmHg 96%
    07:00 +16°C° 0.1 mm 1 mps 737 mmHg 94%
    08:00 +16°C° 0.1 mm 1 mps 737 mmHg 93%
    09:00 +18°C° 0.3 mm 1 mps 737 mmHg 91%
    10:00 +18°C° 0.3 mm 1 mps 737 mmHg 89%
    11:00 +19°C° 0.3 mm 1 mps 737 mmHg 87%
    12:00 +19°C° 0.7 mm 1 mps 736 mmHg 87%
    13:00 +20°C° 0.7 mm 1 mps 736 mmHg 86%
    14:00 +20°C° 0.7 mm 1 mps 736 mmHg 85%
    15:00 +20°C° 0.9 mm 1 mps 736 mmHg 87%
    16:00 +19°C° 0.9 mm 1 mps 735 mmHg 88%
    17:00 +19°C° 0.9 mm 1 mps 735 mmHg 90%
    18:00 +18°C° 0.1 mm 1 mps 735 mmHg 91%
    19:00 +16°C° 0.1 mm 1 mps 735 mmHg 92%
    20:00 +16°C° 0.1 mm 1 mps 735 mmHg 93%
    21:00 +15°C° 0 mm 2 mps 735 mmHg 93%
    22:00 +13°C° 0 mm 3 mps 735 mmHg 93%
    23:00 +12°C° 0 mm 3 mps 736 mmHg 92%

    26 Mayo, Domingo

    Tiempo Temperatura Precipitaciones Viento Presión Humedad
    00:00 +11°C° 0 mm 3 mps 736 mmHg 94%
    01:00 +12°C° 0 mm 2 mps 736 mmHg 95%
    02:00 +10°C° 0 mm 2 mps 736 mmHg 97%
    03:00 +10°C° 0 mm 2 mps 736 mmHg 96%
    04:00 +10°C° 0 mm 2 mps 737 mmHg 96%
    05:00 +9°C° 0 mm 2 mps 737 mmHg 96%
    06:00 +12°C° 0 mm 2 mps 737 mmHg 91%
    07:00 +12°C° 0 mm 3 mps 737 mmHg 86%
    08:00 +13°C° 0 mm 3 mps 737 mmHg 81%
    09:00 +14°C° 0 mm 3 mps 737 mmHg 73%
    10:00 +16°C° 0 mm 3 mps 737 mmHg 66%
    11:00 +17°C° 0 mm 4 mps 737 mmHg 59%
    12:00 +18°C° 0 mm 4 mps 737 mmHg 58%
    13:00 +19°C° 0 mm 4 mps 737 mmHg 57%
    14:00 +19°C° 0 mm 4 mps 737 mmHg 55%
    15:00 +19°C° 0.1 mm 4 mps 737 mmHg 57%
    16:00 +18°C° 0.1 mm 4 mps 736 mmHg 60%
    17:00 +18°C° 0.1 mm 4 mps 736 mmHg 62%
    18:00 +16°C° 0 mm 3 mps 736 mmHg 72%
    19:00 +14°C° 0 mm 2 mps 736 mmHg 81%
    20:00 +12°C° 0 mm 1 mps 736 mmHg 91%
    21:00 +12°C° 0.1 mm 2 mps 736 mmHg 91%
    22:00 +12°C° 0.1 mm 2 mps 736 mmHg 91%
    23:00 +11°C° 0.1 mm 3 mps 736 mmHg 91%

    27 Mayo, Lunes

    Tiempo Temperatura Precipitaciones Viento Presión Humedad
    00:00 +11°C° 0.2 mm 3 mps 735 mmHg 92%
    01:00 +10°C° 0.2 mm 3 mps 735 mmHg 94%
    02:00 +9°C° 0.2 mm 3 mps 735 mmHg 95%
    03:00 +9°C° 0 mm 3 mps 735 mmHg 95%
    04:00 +8°C° 0 mm 4 mps 735 mmHg 95%
    05:00 +7°C° 0 mm 4 mps 735 mmHg 94%
    06:00 +8°C° 0.1 mm 5 mps 736 mmHg 89%
    07:00 +8°C° 0.1 mm 5 mps 736 mmHg 84%
    08:00 +9°C° 0.1 mm 6 mps 736 mmHg 79%
    09:00 +10°C° 0.2 mm 6 mps 737 mmHg 76%
    10:00 +10°C° 0.2 mm 7 mps 737 mmHg 72%
    11:00 +11°C° 0.2 mm 7 mps 737 mmHg 69%
    12:00 +10°C° 0.2 mm 7 mps 738 mmHg 72%
    13:00 +10°C° 0.2 mm 7 mps 738 mmHg 75%
    14:00 +10°C° 0.2 mm 6 mps 738 mmHg 79%
    15:00 +10°C° 0 mm 6 mps 739 mmHg 77%
    16:00 +11°C° 0 mm 6 mps 739 mmHg 75%
    17:00 +11°C° 0 mm 6 mps 740 mmHg 73%
    18:00 +12°C° 0 mm 5 mps 740 mmHg 77%
    19:00 +11°C° 0 mm 4 mps 741 mmHg 81%
    20:00 +10°C° 0 mm 3 mps 741 mmHg 85%
    21:00 +9°C° 0 mm 3 mps 741 mmHg 88%
    22:00 +8°C° 0 mm 3 mps 742 mmHg 91%
    23:00 +8°C° 0 mm 3 mps 742 mmHg 94%
    Mostrar más